Retour au catalogue

DMSP 5D-2 F13 DEB

ActifSSO
NORAD 40523·DEBRIS·🇺🇸 United States

Lancé Mar 24, 1995 depuis Vandenberg Space Force Base

Loading…

Prochains Passages (prochaines 24 heures)

TLE

FraisSource: Space-Track

Époque: Sep 14, 2026, 02:41 UTC

1 40523U 95015DK  26257.11244867  .00004653  00000-0  11541-2 0  9991
2 40523  98.6010 317.8221 0009804 292.4338  67.5818 14.52335008598701

Suivez DMSP 5D-2 F13 DEB en temps réel avec AllMySat

Download on the App Store